User: anonymous   Login
Location: Unspecified
(0.0000°N, 0.0000°E)
Time: 21:57:02
(UTC+00:00)
Language:

Optus B1 - Orbit

View from above orbital plane
View from above orbital plane
View from above satellite
View from above satellite

Ground track
Ground track

The orbit data is extracted from the following two-line orbital elements,

1 22087U 92054A   18316.47443166  .00000017  00000-0  00000+0 0  9990
2 22087   9.3905  42.1200 0003616  56.4571 331.3761  0.99205223107183
Epoch (UTC): 12 November 2018 11:23:10
Eccentricity: 0.0003616
inclination: 9.3905°
perigee height: 36072 km
apogee height: 36103 km
right ascension of ascending node: 42.1200°
argument of perigee: 56.4571°
revolutions per day: 0.99205223
mean anomaly at epoch: 331.3761°
orbit number at epoch: 10718

The dashed part of the orbit path shows where the satellite is in the earth's shadow,  

DLR